SCP
0 0 0 0 0 0 0 0 0 0 0 0 0 0 0 0 0 0 0 0 0 0
0 0 0 0 0 0 0 0 0 0 0 0 0 0 0 0 0 0 0 0 0 0
0 0 0 0 0 0 0 0 0 0 0 0 0 0 0 0 0 0 0 0 0 0
0 0 0 0 0 0 0 0 0 0 0 0 0 0 0 0 0 0 0 0 0 0
0 0 0 0 0 0 0 0 0 0 0 0 0 0 0 0 0 0 0 0 0 0
0 0 0 0 0 0 0 0 0 0 0 0 0 0 0 0 0 0 0 0 0 0
0 0 0 0 0 0 0 0 0 0 0 0 0 0 0 0 0 0 0 0 0 0
0 0 0 0 0 0 0 0 0 0 0 0 0 0 0 0 0 0 0 0 0 0
0 0 0 0 0 0 0 0 0 0 0 0 0 0 0 0 0 0 0 0 0 0
0 0 0 0 0 0 0 0 0 0 0 0 0 0 0 0 0 0 0 0 0 0
0 0 0 0 0 0 0 0 0 0 0 0 0 0 0 0 0 0 0 0 0 0
0 0 0 0 0 0 0 0 0 0 0 0 0 0 0 0 0 0 0 0 0 0
0 0 0 0 0 0 0 0 0 0 0 0 0 0 0 0 0 0 0 0 0 0
0 0 0 0 0 0 0 0 0 0 0 0 0 0 0 0 0 -0 -0 0 0 0
Wind_Speed_500mb
57 62 64 66 68 73 71 65 61 58 55 52 52 55 52 49 48 47 54 56 55 51
61 64 67 69 71 74 71 65 62 60 58 55 52 55 55 53 52 54 53 56 58 59
64 66 70 73 73 72 68 64 64 61 58 57 57 56 57 56 52 54 56 60 68 68
66 68 72 72 70 65 64 64 64 62 60 59 59 59 59 62 62 61 58 62 61 73
67 70 72 69 64 60 63 61 62 62 61 63 65 61 62 65 67 67 65 61 68 80
68 70 69 65 60 61 60 63 63 64 68 68 68 67 66 63 68 70 72 67 67 72
67 67 66 63 62 62 59 63 62 65 65 67 71 68 70 72 74 79 78 80 77 78
65 65 65 65 63 61 60 62 62 66 65 66 69 69 74 76 78 81 87 80 83 85
64 63 64 64 62 62 63 63 65 64 70 65 66 72 75 77 76 77 86 87 79 85
60 62 63 60 62 63 66 67 68 67 69 70 72 77 71 67 74 76 86 99 95 87
60 63 59 59 64 67 69 68 70 72 74 84 79 77 65 73 72 77 84 87 89 89
57 57 58 60 64 68 71 72 74 76 81 84 88 80 74 74 70 77 82 83 88 90
51 56 58 60 64 66 69 73 75 77 81 84 89 84 78 85 70 76 78 86 86 81
49 53 58 62 64 67 70 72 74 78 81 81 77 85 95 73 58 60 74 87 85 86
Wind_Direction_500mb
306 309 310 313 313 314 315 313 312 307 303 299 292 288 284 279 269 256 251 249 246 247
304 306 307 310 309 312 313 310 309 306 303 300 295 290 285 277 271 261 252 250 248 245
302 304 307 307 308 310 310 307 306 304 300 296 292 288 285 278 270 265 257 248 245 243
300 303 306 307 308 309 308 308 306 304 300 296 291 289 282 277 274 265 260 251 245 243
299 304 305 306 306 308 308 309 307 302 297 297 295 292 283 277 272 267 261 253 246 244
302 303 304 305 306 308 306 309 306 302 304 306 303 299 295 285 277 268 261 251 246 243
302 301 304 307 307 308 305 307 309 310 305 305 304 292 291 291 279 271 262 252 248 241
301 302 305 306 305 305 304 309 309 313 311 307 303 298 293 293 285 267 262 261 249 242
302 305 305 304 303 303 306 308 307 307 314 310 309 306 300 295 286 275 262 261 255 243
305 308 308 304 305 306 306 305 304 307 309 306 308 308 302 296 293 281 269 261 258 246
309 311 311 308 306 308 309 307 304 304 301 302 299 303 308 302 293 285 276 267 254 244
312 311 310 310 309 310 310 309 306 304 302 302 300 302 303 305 295 281 275 263 249 241
312 313 313 314 313 315 315 310 308 308 305 303 302 305 304 310 296 280 266 250 247 247
318 320 318 318 321 318 316 314 314 312 313 314 317 317 317 307 297 278 262 253 244 243
Wind_Speed_850mb
57 62 64 66 68 73 71 65 61 58 55 52 52 55 52 49 48 47 54 56 55 51
61 64 67 69 71 74 71 65 62 60 58 55 52 55 55 53 52 54 53 56 58 59
64 66 70 73 73 72 68 64 64 61 58 57 57 56 57 56 52 54 56 60 68 68
66 68 72 72 70 65 64 64 64 62 60 59 59 59 59 62 62 61 58 62 61 73
67 70 72 69 64 60 63 61 62 62 61 63 65 61 62 65 67 67 65 61 68 80
68 70 69 65 60 61 60 63 63 64 68 68 68 67 66 63 68 70 72 67 67 72
67 67 66 63 62 62 59 63 62 65 65 67 71 68 70 72 74 79 78 80 77 78
65 65 65 65 63 61 60 62 62 66 65 66 69 69 74 76 78 81 87 80 83 85
64 63 64 64 62 62 63 63 65 64 70 65 66 72 75 77 76 77 86 87 79 85
60 62 63 60 62 63 66 67 68 67 69 70 72 77 71 67 74 76 86 99 95 87
60 63 59 59 64 67 69 68 70 72 74 84 79 77 65 73 72 77 84 87 89 89
57 57 58 60 64 68 71 72 74 76 81 84 88 80 74 74 70 77 82 83 88 90
51 56 58 60 64 66 69 73 75 77 81 84 89 84 78 85 70 76 78 86 86 81
49 53 58 62 64 67 70 72 74 78 81 81 77 85 95 73 58 60 74 87 85 86
Wind_Direction_850mb
306 309 310 313 313 314 315 313 312 307 303 299 292 288 284 279 269 256 251 249 246 247
304 306 307 310 309 312 313 310 309 306 303 300 295 290 285 277 271 261 252 250 248 245
302 304 307 307 308 310 310 307 306 304 300 296 292 288 285 278 270 265 257 248 245 243
300 303 306 307 308 309 308 308 306 304 300 296 291 289 282 277 274 265 260 251 245 243
299 304 305 306 306 308 308 309 307 302 297 297 295 292 283 277 272 267 261 253 246 244
302 303 304 305 306 308 306 309 306 302 304 306 303 299 295 285 277 268 261 251 246 243
302 301 304 307 307 308 305 307 309 310 305 305 304 292 291 291 279 271 262 252 248 241
301 302 305 306 305 305 304 309 309 313 311 307 303 298 293 293 285 267 262 261 249 242
302 305 305 304 303 303 306 308 307 307 314 310 309 306 300 295 286 275 262 261 255 243
305 308 308 304 305 306 306 305 304 307 309 306 308 308 302 296 293 281 269 261 258 246
309 311 311 308 306 308 309 307 304 304 301 302 299 303 308 302 293 285 276 267 254 244
312 311 310 310 309 310 310 309 306 304 302 302 300 302 303 305 295 281 275 263 249 241
312 313 313 314 313 315 315 310 308 308 305 303 302 305 304 310 296 280 266 250 247 247
318 320 318 318 321 318 316 314 314 312 313 314 317 317 317 307 297 278 262 253 244 243